El Paso, TX (88588)

12:10 AM MDT on July 28, 2016 (GMT -0600)
Montwood and Wedgewood | | Change Station

Elev 3957 ft 31.77 °N, 106.35 °W | Updated 4 minutes ago

Partly Cloudy
Partly Cloudy
80.5 °F
Feels Like 82 °F
N
0.0
Wind Variable Wind from East
Gusts 2.0 mph

Today
High -- | Low -- °F
--% Chance of Precip.
Yesterday
High -- | Low -- °F
Precip. -- in
Pressure 29.84 in
Visibility 10.0 miles
Clouds Few 12000 ft
Few 20000 ft
Heat Index 82 °F
Dew Point 62 °F
Humidity 53%
Rainfall 0.00 in
Snow Depth Not available.
6:19 AM 8:04 PM
Waning Crescent, 35% visible
METAR KELP 280551Z 05003KT 10SM FEW120 FEW200 27/16 A3007 RMK AO2 SLP104 OCNL LTGICCC DSNT NW CB DSNT NW T02720161 10333 20267 51014
Pressure 29.84 in
Visibility 10.0 miles
Clouds Few 12000 ft
Few 20000 ft
Heat Index 82 °F
Dew Point 62 °F
Humidity 53%
Rainfall 0.00 in
Snow Depth Not available.
6:19 AM 8:04 PM
Waning Crescent, 35% visible
METAR KELP 280551Z 05003KT 10SM FEW120 FEW200 27/16 A3007 RMK AO2 SLP104 OCNL LTGICCC DSNT NW CB DSNT NW T02720161 10333 20267 51014

10-Day Weather Forecast

Almanac

Astronomy

Jul. 28, 2016 Rise Set
Actual Time
Civil Twilight
Nautical Twilight
Astronomical Twilight
Moon
Length of Visible Light
Length of Day
Tomorrow will be .
, % of the Moon is Illuminated

Today's Extremes

State Highs State Lows

Community

WunderPhotos

Upload Photos

1,928,064 photos uploaded!

WunderBlog® & News

Nearby

Air Quality

  Air Quality AQ Index Pollutant
Not available.

Snow Depth

Station Depth Elevation

Earthquake Activity

City Distance Mag. Time & Date
Minimum magnitude displayed is 2.5.

Coastal Water Temperatures

Place Temperature

Stations

Nearby Weather Stations

Station Location Temp. Windchill Dew Point Humidity Wind Precip. Elev Updated Type
                   

Watches & Warnings

There are currently no watches in effect.